TimeEST,TemperatureF,Dew PointF,Humidity,Sea Level PressureIn,VisibilityMPH,Wind Direction,Wind SpeedMPH,Gust SpeedMPH,PrecipitationIn,Events,Conditions,WindDirDegrees,DateUTC
12:15 AM,28.8,26.2,90,30.12,10.0,Calm,Calm,-,N/A,,Clear,0,2013-02-21 05:15:00
12:35 AM,28.0,25.7,91,30.12,10.0,Calm,Calm,-,N/A,,Clear,0,2013-02-21 05:35:00
12:55 AM,29.1,26.6,90,30.13,10.0,Calm,Calm,-,N/A,,Clear,0,2013-02-21 05:55:00
1:15 AM,27.9,25.7,92,30.14,10.0,Calm,Calm,-,N/A,,Clear,0,2013-02-21 06:15:00
1:35 AM,27.9,25.7,92,30.15,10.0,Calm,Calm,-,N/A,,Clear,0,2013-02-21 06:35:00
1:55 AM,26.6,24.4,92,30.15,10.0,Calm,Calm,-,N/A,,Clear,0,2013-02-21 06:55:00
2:15 AM,27.1,25.0,92,30.14,10.0,Calm,Calm,-,N/A,,Clear,0,2013-02-21 07:15:00
2:35 AM,25.9,23.5,91,30.14,10.0,Calm,Calm,-,N/A,,Clear,0,2013-02-21 07:35:00
2:55 AM,26.2,23.9,91,30.14,10.0,Calm,Calm,-,N/A,,Clear,0,2013-02-21 07:55:00
3:15 AM,26.2,23.9,91,30.15,10.0,Calm,Calm,-,N/A,,Clear,0,2013-02-21 08:15:00
3:35 AM,26.4,24.1,91,30.16,10.0,Calm,Calm,-,N/A,,Clear,0,2013-02-21 08:35:00
3:55 AM,26.1,23.7,91,30.17,10.0,Calm,Calm,-,N/A,,Clear,0,2013-02-21 08:55:00
4:15 AM,24.8,22.8,92,30.17,10.0,Calm,Calm,-,N/A,,Clear,0,2013-02-21 09:15:00
4:35 AM,24.8,22.5,91,30.16,10.0,Calm,Calm,-,N/A,,Clear,0,2013-02-21 09:35:00
4:55 AM,24.6,22.1,90,30.16,10.0,Calm,Calm,-,N/A,,Clear,0,2013-02-21 09:55:00
5:15 AM,24.8,22.1,89,30.17,10.0,Calm,Calm,-,N/A,,Clear,0,2013-02-21 10:15:00
5:35 AM,23.9,21.2,89,30.17,10.0,Calm,Calm,-,N/A,,Clear,0,2013-02-21 10:35:00
5:55 AM,23.9,21.2,89,30.18,10.0,Calm,Calm,-,N/A,,Clear,0,2013-02-21 10:55:00
6:15 AM,23.9,21.6,91,30.19,10.0,Calm,Calm,-,N/A,,Clear,0,2013-02-21 11:15:00
6:55 AM,23.5,21.2,91,30.20,10.0,Calm,Calm,-,N/A,,Clear,0,2013-02-21 11:55:00
7:15 AM,23.4,20.5,89,30.21,10.0,Calm,Calm,-,N/A,,Clear,0,2013-02-21 12:15:00
7:35 AM,24.3,21.7,90,30.21,10.0,Calm,Calm,-,N/A,,Clear,0,2013-02-21 12:35:00
7:55 AM,26.1,23.5,90,30.22,10.0,Calm,Calm,-,N/A,,Clear,0,2013-02-21 12:55:00
8:15 AM,29.3,26.2,88,30.23,10.0,Calm,Calm,-,N/A,,Clear,0,2013-02-21 13:15:00
8:35 AM,31.1,24.4,76,30.24,10.0,Calm,Calm,-,N/A,,Clear,0,2013-02-21 13:35:00
8:55 AM,33.6,25.3,72,30.24,10.0,Calm,Calm,-,N/A,,Clear,0,2013-02-21 13:55:00
9:15 AM,36.7,22.3,56,30.25,10.0,Calm,Calm,-,N/A,,Clear,0,2013-02-21 14:15:00
9:35 AM,37.9,19.2,47,30.24,10.0,NNE,4.6,-,N/A,,Clear,30,2013-02-21 14:35:00
9:55 AM,39.7,19.4,44,30.23,10.0,ENE,3.5,-,N/A,,Clear,60,2013-02-21 14:55:00
10:15 AM,42.1,19.2,40,30.22,10.0,Calm,Calm,-,N/A,,Clear,0,2013-02-21 15:15:00
10:35 AM,43.3,15.6,33,30.23,10.0,North,4.6,-,N/A,,Clear,10,2013-02-21 15:35:00
10:55 AM,44.2,14.4,30,30.23,10.0,Calm,Calm,-,N/A,,Clear,0,2013-02-21 15:55:00
11:15 AM,45.9,16.2,30,30.22,10.0,Calm,Calm,-,N/A,,Clear,0,2013-02-21 16:15:00
11:35 AM,47.1,17.1,30,30.21,10.0,WNW,3.5,-,N/A,,Clear,300,2013-02-21 16:35:00
11:55 AM,48.6,12.2,23,30.21,10.0,NNW,3.5,-,N/A,,Clear,330,2013-02-21 16:55:00
12:15 PM,49.8,13.6,24,30.20,10.0,Calm,Calm,-,N/A,,Clear,0,2013-02-21 17:15:00
12:35 PM,50.4,14.2,24,30.18,10.0,Calm,Calm,-,N/A,,Clear,0,2013-02-21 17:35:00
1:15 PM,53.1,15.4,23,30.16,10.0,ESE,3.5,-,N/A,,Clear,120,2013-02-21 18:15:00
1:35 PM,53.6,15.3,22,30.15,10.0,SE,4.6,-,N/A,,Clear,140,2013-02-21 18:35:00
1:55 PM,54.7,13.8,20,30.14,10.0,Calm,Calm,-,N/A,,Clear,0,2013-02-21 18:55:00
2:15 PM,55.4,13.3,19,30.12,10.0,Calm,Calm,-,N/A,,Clear,0,2013-02-21 19:15:00
2:35 PM,55.4,14.5,20,30.11,10.0,Calm,Calm,-,N/A,,Clear,0,2013-02-21 19:35:00
2:55 PM,55.9,15.4,20,30.11,10.0,Calm,Calm,-,N/A,,Clear,0,2013-02-21 19:55:00
3:15 PM,56.5,15.8,20,30.11,10.0,SSW,4.6,-,N/A,,Clear,200,2013-02-21 20:15:00
3:35 PM,57.0,13.6,18,30.12,10.0,Calm,Calm,-,N/A,,Clear,0,2013-02-21 20:35:00
3:55 PM,57.2,13.6,18,30.13,10.0,Calm,Calm,-,N/A,,Clear,0,2013-02-21 20:55:00
4:15 PM,57.4,14.2,18,30.13,10.0,Calm,Calm,-,N/A,,Clear,0,2013-02-21 21:15:00
4:35 PM,57.4,14.7,19,30.13,10.0,Calm,Calm,-,N/A,,Clear,0,2013-02-21 21:35:00
4:55 PM,56.5,16.7,21,30.12,10.0,NE,4.6,-,N/A,,Clear,40,2013-02-21 21:55:00
5:15 PM,55.0,17.8,23,30.12,10.0,Calm,Calm,-,N/A,,Clear,0,2013-02-21 22:15:00
5:35 PM,53.1,25.3,34,30.13,10.0,Calm,Calm,-,N/A,,Clear,0,2013-02-21 22:35:00
5:55 PM,52.0,26.4,37,30.13,10.0,Calm,Calm,-,N/A,,Clear,0,2013-02-21 22:55:00
6:15 PM,50.0,29.5,45,30.13,10.0,Calm,Calm,-,N/A,,Clear,0,2013-02-21 23:15:00
6:35 PM,48.4,28.8,47,30.14,10.0,Calm,Calm,-,N/A,,Clear,0,2013-02-21 23:35:00
6:55 PM,45.5,33.6,63,30.15,10.0,Calm,Calm,-,N/A,,Clear,0,2013-02-21 23:55:00
7:15 PM,44.4,33.1,64,30.15,10.0,Calm,Calm,-,N/A,,Clear,0,2013-02-22 00:15:00
7:35 PM,43.9,33.6,67,30.16,10.0,Calm,Calm,-,N/A,,Clear,0,2013-02-22 00:35:00
7:55 PM,43.5,34.0,69,30.15,10.0,Calm,Calm,-,N/A,,Clear,0,2013-02-22 00:55:00
8:15 PM,42.1,33.6,72,30.14,10.0,Calm,Calm,-,N/A,,Clear,0,2013-02-22 01:15:00
8:35 PM,42.6,32.7,68,30.15,10.0,Calm,Calm,-,N/A,,Clear,0,2013-02-22 01:35:00
8:55 PM,41.9,33.6,72,30.16,10.0,Calm,Calm,-,N/A,,Clear,0,2013-02-22 01:55:00
9:15 PM,39.9,34.0,79,30.17,10.0,Calm,Calm,-,N/A,,Clear,0,2013-02-22 02:15:00
9:35 PM,40.1,33.6,78,30.17,10.0,Calm,Calm,-,N/A,,Clear,0,2013-02-22 02:35:00
9:55 PM,43.0,31.8,65,30.18,10.0,Calm,Calm,-,N/A,,Clear,0,2013-02-22 02:55:00
10:15 PM,41.9,32.2,68,30.20,10.0,Calm,Calm,-,N/A,,Clear,0,2013-02-22 03:15:00
10:35 PM,42.8,32.4,67,30.20,10.0,NNE,3.5,-,N/A,,Scattered Clouds,30,2013-02-22 03:35:00
10:55 PM,44.8,28.4,53,30.21,10.0,Calm,Calm,-,N/A,,Overcast,0,2013-02-22 03:55:00
11:15 PM,45.1,28.4,52,30.21,10.0,Calm,Calm,-,N/A,,Overcast,0,2013-02-22 04:15:00
11:35 PM,47.1,23.4,39,30.22,10.0,ENE,3.5,-,N/A,,Overcast,60,2013-02-22 04:35:00
11:55 PM,47.3,21.0,35,30.23,10.0,ENE,3.5,-,N/A,,Overcast,60,2013-02-22 04:55:00